Date,TemperatureHighF,TemperatureAvgF,TemperatureLowF,DewpointHighF,DewpointAvgF,DewpointLowF,HumidityHigh,HumidityAvg,HumidityLow,PressureMaxIn,PressureMinIn,WindSpeedMaxMPH,WindSpeedAvgMPH,GustSpeedMaxMPH,PrecipitationSumIn
2012-1-1,61,48,34,50,41,33,98,78,54,30.20,29.82,5,0,9,0.00
2012-1-2,49,39,32,34,24,19,64,53,46,30.02,29.89,6,1,14,0.00
2012-1-3,33,29,22,21,15,6,67,56,35,30.33,30.01,11,1,19,0.00
2012-1-4,34,28,17,22,13,2,62,55,49,30.39,30.04,3,0,7,0.00
2012-1-5,50,38,29,31,28,21,83,68,47,30.08,30.01,5,0,9,0.00
2012-1-6,65,45,29,39,33,26,92,66,38,30.01,29.87,4,0,7,0.00
2012-1-7,68,48,32,49,38,30,93,71,50,30.10,29.84,2,0,7,0.00
2012-1-8,52,43,36,35,32,28,89,66,49,30.40,30.10,5,0,10,0.00
2012-1-9,40,36,33,34,30,26,97,79,63,30.40,30.10,1,0,4,0.06
2012-1-10,55,40,32,39,35,31,98,84,51,30.11,30.03,3,0,7,0.11
2012-1-11,49,39,30,48,38,29,99,96,90,30.10,29.58,3,0,7,0.56
2012-1-12,62,52,43,52,48,43,99,89,68,29.60,29.44,3,0,8,0.27
2012-1-13,54,39,29,49,27,19,91,62,44,30.04,29.38,6,1,12,0.05
2012-1-14,40,32,26,23,20,17,75,60,49,30.22,30.04,4,0,10,0.00
2012-1-15,37,30,24,19,16,12,78,58,39,30.64,30.22,8,0,10,0.00
2012-1-16,42,33,22,34,23,16,84,69,50,30.65,30.23,4,0,9,0.03
2012-1-17,60,50,40,54,45,34,96,82,69,30.21,29.74,7,1,12,0.31
2012-1-18,58,41,28,54,26,18,88,57,45,30.25,29.75,9,1,20,0.00
2012-1-19,41,33,23,28,22,18,84,64,51,30.29,30.00,7,0,8,0.00
2012-1-20,38,34,28,30,21,13,90,61,42,30.35,30.03,4,0,8,0.00
2012-1-21,33,31,28,32,29,26,96,92,85,30.35,30.00,4,0,7,0.05
2012-1-22,32,31,30,30,27,26,93,86,82,30.52,30.35,5,0,8,0.00
2012-1-23,44,36,32,44,36,30,99,97,93,30.41,29.99,6,0,6,0.23
2012-1-24,60,47,37,49,43,36,99,89,61,30.25,29.99,3,0,4,0.00
2012-1-25,52,43,34,38,35,31,96,74,58,30.44,30.26,4,0,8,0.00
2012-1-26,57,48,42,55,44,36,93,85,74,30.26,29.78,2,0,6,0.00
2012-1-27,64,56,42,62,49,33,98,79,57,30.07,29.51,9,1,20,0.32
2012-1-28,42,39,36,33,32,32,84,78,69,30.07,30.05,0,0,3,0.00
2012-1-29,61,55,49,45,38,35,84,52,40,30.16,30.09,2,0,7,0.04
2012-1-30,61,54,50,50,49,46,97,82,68,30.09,30.02,0,0,3,0.08
2012-1-31,67,64,63,39,38,37,40,38,34,30.21,30.16,0,0,7,0.00
2012-2-1,56,53,52,42,42,42,70,66,59,30.11,30.09,0,0,3,0.00
2012-2-2,39,38,38,37,36,34,95,93,82,30.22,30.13,1,0,3,0.03
2012-2-3,42,32,27,32,29,26,95,89,67,30.30,30.26,0,0,3,0.00
2012-2-4,48,41,37,35,33,30,83,73,55,30.17,30.11,2,0,7,0.00
2012-2-5,48,40,34,36,33,30,94,78,63,30.32,30.19,4,0,6,0.10
2012-2-6,49,38,32,37,30,25,100,75,43,30.33,30.18,5,0,12,0.02
2012-2-7,49,38,31,36,29,25,82,69,51,30.26,30.08,2,0,7,0.00
2012-2-8,44,40,34,37,35,20,96,81,57,30.06,29.69,2,0,15,0.15
2012-2-9,33,28,22,19,15,12,87,59,49,30.14,29.82,3,2,18,0.00
2012-2-10,29,29,29,16,15,15,56,55,55,30.16,30.14,3,1,12,0.00
2012-2-12,28,28,27,16,15,14,63,59,56,30.20,30.17,4,0,6,0.00
2012-2-13,50,35,22,26,20,15,77,56,34,30.25,30.13,7,0,9,0.00
2012-2-14,56,45,36,37,31,26,74,60,47,30.15,29.99,8,0,8,0.00
2012-2-15,55,46,39,38,36,33,81,68,49,30.35,30.05,5,1,15,0.00
2012-2-16,47,44,39,44,40,34,96,87,74,30.35,30.07,3,0,4,0.11
2012-2-17,55,46,38,43,36,31,99,73,43,30.15,30.05,7,1,15,0.00
2012-2-18,60,45,30,41,34,28,93,66,46,30.19,29.94,6,0,11,0.00
2012-2-19,45,40,35,34,29,24,95,64,47,30.16,29.95,6,1,8,0.10
2012-2-20,50,39,31,35,28,25,96,66,40,30.41,30.02,4,1,9,0.00
2012-2-21,51,40,27,37,31,24,94,74,53,30.41,29.92,7,1,11,0.00
2012-2-22,64,54,37,45,40,35,95,62,40,29.92,29.53,4,0,11,0.00
2012-2-23,67,56,46,48,45,43,93,68,44,29.70,29.52,4,0,9,0.00
2012-2-24,57,52,46,54,47,31,98,83,49,29.74,29.39,8,0,18,0.32
2012-2-25,49,42,36,32,25,19,76,51,38,30.33,29.74,6,1,18,0.00
2012-2-26,51,41,33,31,25,21,76,54,41,30.54,30.33,4,0,9,0.00
2012-2-27,66,49,31,43,34,28,90,61,36,30.47,30.20,5,0,10,0.00
2012-2-28,57,48,39,42,30,27,80,53,35,30.53,30.31,4,0,10,0.00
2012-2-29,56,46,38,56,44,31,100,91,68,30.38,29.73,4,0,9,1.31
2012-3-1,71,59,46,58,47,34,100,70,41,30.03,29.67,5,0,10,0.01
2012-3-2,56,46,36,47,40,33,98,80,52,30.11,29.77,3,0,8,0.33
2012-3-3,64,53,48,50,42,28,99,71,35,29.78,29.58,3,0,8,0.08
2012-3-4,50,44,36,32,27,22,61,52,39,29.97,29.73,8,1,13,0.00
2012-3-5,44,37,30,31,26,19,82,65,48,30.53,29.97,7,1,11,0.00
2012-3-6,51,39,27,33,25,20,82,59,42,30.74,30.54,4,0,8,0.00
2012-3-7,68,54,40,50,40,31,74,61,45,30.63,30.40,7,1,15,0.00
2012-3-8,73,64,54,57,52,48,86,67,50,30.40,30.00,8,2,15,0.00
2012-3-9,66,52,42,56,34,24,80,50,35,30.42,30.00,8,1,14,0.00
2012-3-10,51,41,34,26,23,20,66,49,34,30.62,30.42,6,1,12,0.00
2012-3-11,65,48,32,38,33,26,86,59,36,30.62,30.42,6,0,8,0.00
2012-3-12,74,59,40,55,45,34,81,60,41,30.44,30.17,5,0,9,0.00
2012-3-13,82,68,59,62,57,54,89,70,46,30.17,30.00,4,1,7,0.01
2012-3-14,82,64,51,56,51,49,93,68,34,30.24,30.09,1,0,10,0.00
2012-3-15,87,66,50,60,54,47,95,69,34,30.24,30.12,3,0,7,0.00
2012-3-16,60,55,52,57,52,50,98,91,82,30.24,30.18,2,0,5,0.02
2012-3-17,70,53,48,61,52,48,100,95,72,30.33,30.23,2,0,6,0.00
2012-3-18,70,59,52,60,55,51,96,87,70,30.42,30.25,1,0,5,0.00
2012-3-19,76,65,53,64,59,52,98,81,61,30.26,30.16,3,0,8,0.00
2012-3-20,72,66,59,65,62,58,99,89,76,30.30,30.21,3,0,7,0.01
2012-3-21,69,62,58,64,60,57,100,94,83,30.37,30.28,2,0,4,0.01
2012-3-22,80,68,57,68,63,56,100,86,63,30.32,30.12,3,0,5,0.00
2012-3-23,84,70,56,67,61,56,100,77,50,30.15,29.99,3,0,7,0.00
2012-3-24,67,62,56,63,60,56,100,95,81,30.00,29.89,3,0,7,0.21
2012-3-25,63,56,52,56,54,52,100,94,78,29.90,29.79,4,1,9,0.19
2012-3-26,61,56,45,57,40,20,95,58,33,30.26,29.83,8,1,15,0.00
2012-3-27,58,45,32,31,23,16,66,43,27,30.43,30.25,5,1,9,0.00
2012-3-28,74,60,44,63,45,30,88,60,47,30.26,29.71,5,1,10,0.01
2012-3-29,66,60,51,56,44,37,91,56,44,30.07,29.73,7,1,16,0.00
2012-3-30,55,49,40,44,40,35,87,70,57,30.18,29.91,4,0,6,0.00
2012-3-31,64,54,48,54,48,44,95,83,70,29.95,29.80,5,1,8,0.01
2012-4-1,65,54,47,54,47,43,90,78,59,29.97,29.63,5,0,7,0.04
2012-4-2,62,54,46,55,42,33,98,67,37,29.98,29.60,9,1,11,0.11
2012-4-3,74,56,37,42,36,30,86,53,24,30.09,29.83,4,0,6,0.00
2012-4-4,75,61,50,58,48,33,84,63,32,29.84,29.60,7,0,9,0.00
2012-4-5,63,55,46,41,35,32,73,47,34,29.95,29.76,8,1,8,0.00
2012-4-6,62,51,42,38,32,28,82,51,32,30.13,29.94,7,1,11,0.00
2012-4-7,65,53,38,33,29,25,66,41,28,30.27,30.11,7,1,12,0.00
2012-4-8,74,59,44,43,35,28,60,41,29,30.16,29.86,5,1,10,0.00
2012-4-9,69,58,49,45,38,29,66,47,39,29.99,29.82,11,1,13,0.00
2012-4-10,68,55,42,45,38,28,90,56,31,29.95,29.74,4,1,11,0.00
2012-4-11,56,46,38,37,33,28,74,59,43,30.10,29.94,6,1,13,0.00
2012-4-12,59,47,42,40,37,35,76,68,46,30.20,30.09,2,0,10,0.00
2012-4-13,67,54,42,40,38,35,81,57,35,30.33,30.22,2,0,11,0.00
2012-4-14,75,58,42,50,44,38,93,62,33,30.31,30.10,2,0,11,0.00
2012-4-15,85,72,59,61,56,50,79,59,44,30.13,30.03,2,0,9,0.00
2012-4-16,89,76,60,68,63,58,95,65,43,30.10,29.96,7,1,14,0.00
2012-4-17,76,68,59,62,51,40,86,55,35,30.26,30.01,6,1,11,0.00
2012-4-18,61,57,53,51,46,41,92,68,50,30.31,30.19,5,0,5,0.07
2012-4-19,72,59,48,56,51,46,100,77,54,30.20,30.05,3,0,5,0.01
2012-4-20,74,62,48,60,54,47,99,79,58,30.08,29.87,6,0,8,0.00
2012-4-21,82,66,56,64,59,54,97,81,47,29.87,29.66,6,0,11,0.17
2012-4-22,56,50,46,54,49,45,98,94,85,29.84,29.46,4,1,14,1.22
2012-5-4,74,71,66,67,66,65,94,85,79,29.94,29.92,0,0,0,0.00
2012-5-5,83,70,61,72,66,61,100,86,66,30.03,29.90,2,0,5,0.02
2012-5-6,72,66,61,64,61,59,95,85,74,30.13,30.03,2,0,3,0.00
2012-5-7,71,64,57,59,56,49,96,76,58,30.16,30.06,7,1,10,0.00
2012-5-8,73,67,60,67,60,51,93,80,66,30.09,29.84,6,1,11,0.03
2012-5-9,67,66,65,65,65,64,98,95,92,29.86,29.82,1,0,5,0.11
2012-5-10,68,60,52,57,50,46,99,73,47,29.98,29.65,3,1,15,0.01
2012-5-11,72,61,50,48,44,41,87,57,35,30.23,29.99,1,0,9,0.00
2012-5-12,80,64,48,56,50,45,94,64,31,30.35,30.23,1,0,6,0.00
2012-5-13,78,64,59,64,57,55,89,79,62,30.26,30.21,3,0,6,0.00
2012-5-14,71,66,62,66,64,60,100,93,73,30.17,30.05,2,0,8,0.26
2012-5-15,80,71,66,72,67,64,100,89,69,30.05,29.94,3,0,7,0.98
2012-5-16,83,72,61,68,64,60,100,79,48,29.99,29.90,2,0,5,0.00
2012-5-17,75,67,54,65,54,48,95,66,39,30.17,29.96,4,0,10,0.00
2012-5-18,77,64,50,56,52,47,98,67,44,30.24,30.16,3,0,5,0.00
2012-5-19,82,67,51,59,53,47,91,64,41,30.24,30.12,2,0,5,0.00
2012-5-20,80,69,54,66,58,46,95,69,43,30.22,30.11,3,0,7,0.00
2012-5-21,75,68,64,69,66,64,100,92,81,30.11,29.95,2,0,8,0.11
2012-5-22,78,70,65,70,66,64,98,89,72,29.95,29.84,1,0,3,0.02
2012-5-23,81,70,65,72,67,64,99,91,71,30.02,29.87,1,0,5,0.20
2012-5-24,83,74,66,70,68,65,100,84,62,30.12,30.02,4,0,9,0.01
2012-5-25,86,77,70,75,71,68,97,84,65,30.19,30.12,4,0,7,0.01
2012-5-26,88,78,69,76,71,68,98,81,61,30.21,30.12,5,0,6,0.00
2012-5-27,87,77,68,74,70,68,97,80,60,30.23,30.08,6,0,10,0.11
2012-5-28,92,79,67,78,72,66,98,82,62,30.10,29.97,6,0,7,0.00
2012-5-29,90,80,70,77,73,68,100,81,62,29.98,29.78,5,1,12,0.70
2012-5-30,82,73,65,71,67,64,100,82,58,29.86,29.75,2,0,4,0.01
2012-5-31,85,75,65,65,61,57,94,63,44,29.94,29.77,3,0,8,0.00
2012-6-1,81,72,64,74,68,60,100,88,70,29.95,29.70,3,0,7,1.08
2012-6-2,74,65,58,64,56,52,100,75,48,29.88,29.76,2,0,9,0.01
2012-6-3,79,67,54,61,56,52,97,70,49,29.90,29.76,3,0,7,0.00
2012-6-4,74,68,59,58,55,52,87,64,50,29.80,29.70,8,1,13,0.00
2012-6-5,70,64,57,57,54,52,92,73,55,30.00,29.80,2,0,5,0.00
2012-6-6,74,62,53,61,55,52,98,79,52,30.07,30.00,2,0,4,0.26
2012-6-7,82,67,54,64,58,54,100,76,47,30.07,29.98,2,0,7,0.01
2012-6-8,83,70,56,62,58,54,96,68,41,30.07,29.95,3,0,7,0.00
2012-6-9,90,77,61,66,61,58,91,61,35,30.05,29.98,3,0,5,0.00
2012-6-10,93,79,64,69,65,61,94,64,39,30.15,30.05,4,0,7,0.00
2012-6-11,88,78,67,73,68,65,97,72,49,30.18,30.10,7,0,14,0.00
2012-6-12,77,74,69,75,71,68,99,93,73,30.11,29.86,3,0,7,0.32
2012-6-13,79,73,67,73,62,54,99,73,42,30.09,29.87,6,1,9,0.14
2012-6-14,69,69,68,58,58,57,69,68,66,30.11,30.09,3,0,5,0.00
2012-6-15,80,72,62,64,62,57,96,72,52,30.32,30.25,1,0,5,0.00
2012-6-16,81,70,58,62,58,55,94,67,48,30.38,30.23,0,0,6,0.00
2012-6-17,76,68,56,65,60,54,95,76,65,30.27,30.10,1,0,7,0.00
2012-6-18,70,67,62,66,63,59,96,87,80,30.16,30.10,2,0,6,0.08
2012-6-19,88,77,68,77,71,64,91,81,68,30.19,30.10,2,0,5,0.00
2012-6-20,97,84,71,78,74,70,99,74,48,30.18,30.04,3,0,5,0.00
2012-6-21,98,86,73,77,74,71,96,71,49,30.04,29.87,2,0,5,0.00
2012-6-22,94,83,73,77,73,68,92,74,51,29.90,29.79,4,0,9,0.00
2012-6-23,89,79,70,72,67,60,96,70,42,30.05,29.90,4,0,6,0.02
2012-6-24,92,80,66,70,66,62,92,66,43,30.06,29.93,3,0,8,0.00
2012-6-25,85,78,70,74,64,51,92,66,40,29.93,29.74,5,0,9,0.00
2012-6-26,79,70,61,56,53,48,69,55,44,29.94,29.84,7,1,10,0.00
2012-6-27,86,75,62,63,58,53,73,57,40,29.97,29.88,5,0,13,0.00
2012-6-28,94,80,64,68,64,59,88,60,37,29.96,29.80,4,0,7,0.00
2012-6-29,102,88,76,81,74,66,80,65,48,29.80,29.69,3,0,6,0.00
2012-6-30,83,83,83,71,71,71,68,68,68,29.91,29.91,0,0,0,0.00
2012-7-1,82,81,80,72,72,71,76,73,71,29.91,29.90,0,0,0,0.00
2012-7-2,92,84,76,72,69,66,80,61,47,30.00,29.90,4,0,8,0.00
2012-7-3,96,84,73,74,69,65,97,65,38,30.00,29.91,4,0,7,0.14
2012-7-4,96,84,72,78,74,68,99,74,53,29.96,29.84,5,0,6,0.00
2012-7-5,98,88,75,77,73,68,85,64,48,29.91,29.82,5,0,7,0.00
2012-7-6,99,88,78,76,72,68,85,61,41,29.99,29.89,4,0,5,0.00
2012-7-7,97,84,80,79,77,75,89,80,57,29.96,29.93,1,0,4,0.00
2012-7-8,100,88,80,81,77,75,87,73,53,29.90,29.82,3,0,7,0.02
2012-7-9,84,78,72,77,72,66,99,82,56,30.02,29.88,2,0,7,0.30
2012-7-10,90,79,71,76,72,68,98,79,50,30.09,30.00,3,0,10,0.17
2012-7-11,88,78,70,74,70,64,100,78,49,30.20,30.08,1,0,6,0.00
2012-7-12,77,75,72,67,66,66,83,76,71,30.21,30.20,0,0,3,0.00
2012-7-13,89,79,71,70,67,64,89,68,51,30.26,30.20,0,0,5,0.00
2012-7-14,88,78,70,77,72,65,98,83,67,30.25,30.16,1,0,7,0.49
2012-7-15,95,81,74,78,76,74,100,86,56,30.19,30.03,2,0,10,0.06
2012-7-16,94,83,72,79,75,72,97,79,60,30.06,29.87,1,0,10,0.01
2012-7-17,99,86,73,76,73,70,95,68,41,29.96,29.84,0,0,6,0.00
2012-7-18,101,86,77,80,75,72,87,71,48,29.97,29.85,1,0,15,0.00
2012-7-19,96,85,74,77,74,72,98,72,50,29.99,29.87,3,0,8,0.39
2012-7-20,80,75,69,77,73,68,100,96,84,30.02,29.88,3,0,4,0.33
2012-7-21,69,68,66,69,67,65,100,99,96,30.17,30.01,1,0,4,0.20
2012-7-22,82,74,67,75,71,67,100,92,76,30.23,30.16,1,0,4,0.00
2012-7-23,89,81,72,78,75,71,100,83,66,30.17,29.93,0,0,0,0.00
2012-7-24,91,81,72,80,74,71,95,80,68,29.95,29.75,3,0,7,0.00
2012-7-25,88,79,69,72,63,59,86,60,41,30.00,29.82,3,0,5,0.00
2012-7-26,99,85,73,81,74,64,90,72,54,29.91,29.70,5,0,8,0.00
2012-7-27,93,84,75,77,74,73,95,75,57,29.92,29.77,3,0,6,0.00
2012-7-28,95,82,72,76,73,71,99,77,51,29.98,29.87,3,0,6,0.27
2012-7-29,88,78,68,73,71,67,99,82,57,30.06,29.96,4,0,6,0.01
2012-7-30,90,79,70,76,73,69,100,81,59,30.11,30.03,3,0,6,0.00
2012-7-31,90,79,73,75,73,70,97,81,56,30.08,29.92,4,0,7,0.04
2012-8-1,88,78,70,77,73,69,99,86,61,29.96,29.84,2,0,4,0.13
2012-8-2,95,81,70,78,74,70,100,82,51,29.96,29.89,2,0,5,0.00
2012-8-3,93,84,74,78,75,71,92,76,56,30.11,29.97,4,0,8,0.00
2012-8-4,95,86,78,78,76,73,93,74,52,30.19,30.11,6,0,8,0.00
2012-8-5,95,83,76,78,76,72,98,79,55,30.19,30.05,5,1,14,0.05
2012-8-6,89,81,76,77,75,73,99,84,62,30.11,30.01,0,0,3,0.00
2012-8-7,88,80,74,78,75,72,98,85,66,30.05,29.98,2,0,4,0.00
2012-8-8,90,81,74,78,75,72,99,82,64,30.03,29.97,5,0,7,0.00
2012-8-9,94,83,73,76,73,66,99,74,50,29.99,29.86,4,0,7,0.00
2012-8-10,86,78,71,75,73,69,99,84,68,29.90,29.76,4,0,7,0.40
2012-8-11,87,78,70,75,72,69,99,83,59,29.95,29.82,4,0,8,0.15
2012-8-12,86,76,68,73,66,64,98,74,49,30.05,29.94,4,0,6,0.00
2012-8-13,90,78,68,73,68,65,93,72,47,30.10,29.97,3,0,7,0.00
2012-8-14,90,80,71,76,73,70,99,81,54,30.00,29.85,5,0,6,0.29
2012-8-15,85,77,70,72,70,68,96,80,62,29.95,29.88,7,0,7,0.00
2012-8-16,90,78,68,68,66,64,89,69,46,30.04,29.92,4,0,5,0.00
2012-8-17,93,79,67,72,68,65,95,72,46,29.98,29.81,5,0,8,0.00
2012-8-18,84,75,66,71,66,62,99,77,51,29.98,29.89,3,0,7,0.16
2012-8-19,76,70,67,71,68,64,99,93,81,30.01,29.93,1,0,7,0.68
2012-8-20,82,71,66,70,68,66,100,89,62,30.01,29.89,2,0,5,0.02
2012-8-21,85,72,63,69,66,63,99,83,53,30.14,30.01,2,0,4,0.22
2012-8-22,87,72,63,71,67,63,100,86,52,30.19,30.12,2,0,5,0.07
2012-8-23,87,76,66,72,68,65,100,79,54,30.21,30.14,4,0,7,0.01
2012-8-24,88,77,67,72,68,66,98,77,54,30.21,30.16,3,0,6,0.00
2012-8-25,80,73,70,71,69,64,94,86,63,30.24,30.18,2,0,4,0.14
2012-8-26,82,73,69,76,71,69,99,93,79,30.26,30.19,1,0,9,0.19
2012-8-27,89,77,68,75,72,68,100,84,61,30.21,30.01,3,0,6,0.00
2012-8-28,90,79,70,75,71,65,97,77,47,30.01,29.92,3,0,8,0.03
2012-8-29,86,74,64,67,65,62,94,73,50,30.07,29.96,5,0,5,0.00
2012-8-30,90,76,64,72,67,62,98,77,53,30.16,30.06,2,0,5,0.00
2012-8-31,96,82,70,75,71,66,98,73,41,30.17,30.03,4,0,8,0.00
2012-9-1,93,81,71,77,74,69,99,80,59,30.12,30.02,4,0,6,0.82
2012-9-2,82,76,72,78,75,71,100,95,83,30.08,29.99,1,0,4,0.13
2012-9-3,84,78,73,77,75,73,100,90,76,30.09,30.03,3,0,6,0.02
2012-9-4,89,80,73,79,76,73,100,87,68,30.06,29.90,5,0,11,0.10
2012-9-5,89,81,77,80,76,74,95,85,72,29.91,29.82,4,0,7,0.00
2012-9-6,85,77,72,78,75,70,100,92,74,29.98,29.86,3,0,6,0.30
2012-9-7,90,78,68,77,72,67,100,84,62,29.99,29.87,3,0,8,0.00
2012-9-8,90,75,64,76,71,63,100,90,63,29.91,29.62,6,1,16,0.56
2012-9-9,80,69,59,63,59,55,98,73,47,30.01,29.87,3,0,7,0.00
2012-9-10,76,66,59,58,55,52,83,67,45,30.22,30.01,5,0,8,0.00
2012-9-11,80,65,52,57,54,50,97,71,39,30.36,30.22,2,0,5,0.00
2012-9-12,83,67,53,64,57,52,99,74,46,30.42,30.34,4,0,7,0.00
2012-9-13,83,69,56,65,60,56,99,77,45,30.43,30.31,2,0,7,0.00
2012-9-14,83,70,58,69,64,58,100,82,58,30.32,30.16,3,0,5,0.00
2012-9-15,77,68,59,65,56,51,96,67,47,30.28,30.15,7,1,9,0.00
2012-9-16,76,65,55,60,56,52,95,76,56,30.22,30.11,3,0,4,0.00
2012-9-17,73,65,54,68,61,53,99,88,77,30.17,30.01,2,0,6,0.01
2012-9-18,79,71,66,74,70,65,100,96,83,30.01,29.64,8,1,14,1.21
2012-9-19,72,64,54,64,54,50,97,72,50,30.22,29.87,3,0,8,0.00
2012-9-20,77,62,50,60,55,48,98,79,54,30.23,30.10,3,0,6,0.00
2012-9-21,80,67,54,67,61,54,99,82,63,30.13,29.99,5,0,8,0.00
2012-9-22,85,75,65,70,66,57,93,73,58,30.00,29.82,6,0,9,0.00
2012-9-23,71,62,53,57,50,46,81,65,47,30.21,29.96,3,0,7,0.00
2012-9-24,71,59,51,51,48,46,93,70,42,30.29,30.19,4,0,7,0.00
2012-9-25,76,63,49,59,53,47,96,73,49,30.26,30.11,6,0,8,0.00
2012-9-26,84,72,64,68,64,59,91,75,57,30.19,30.09,3,0,7,0.06
2012-9-27,84,72,63,71,66,63,100,84,60,30.21,30.11,2,0,6,0.29
2012-9-28,79,69,63,70,65,56,100,88,66,30.15,30.01,2,0,3,0.40
2012-9-29,71,63,55,57,54,52,89,74,54,30.07,29.96,3,0,6,0.00
2012-9-30,75,61,50,56,53,49,97,77,49,29.97,29.84,5,0,9,0.00
2012-10-1,71,60,51,61,55,50,97,83,56,30.02,29.94,1,0,4,0.02
2012-10-2,70,67,62,70,67,61,100,99,96,29.99,29.92,1,0,3,0.37
2012-10-3,82,74,69,74,71,69,100,92,71,30.15,29.98,3,0,4,0.00
2012-10-4,79,72,64,74,69,60,100,90,69,30.19,30.13,3,0,6,0.01
2012-10-5,64,62,60,60,59,58,93,88,84,30.18,30.17,0,0,0,0.00
2012-10-6,79,63,50,67,57,47,99,82,62,30.10,29.88,2,0,10,0.01
2012-10-7,54,51,48,50,48,44,97,89,69,30.22,30.08,1,0,2,0.13
2012-10-8,54,48,42,48,45,41,98,89,73,30.36,30.23,3,0,4,0.04
2012-10-9,62,54,47,55,51,46,98,89,78,30.27,30.12,2,0,5,0.08
2012-10-10,72,61,54,56,54,47,96,80,55,30.15,29.93,3,0,11,0.00
2012-10-11,64,53,46,47,41,37,90,65,45,30.36,30.15,3,0,7,0.00
2012-10-12,65,51,42,49,43,38,98,75,53,30.50,30.20,7,0,12,0.00
2012-10-13,62,50,39,46,39,34,85,67,46,30.59,30.34,4,0,6,0.00
2012-10-14,76,63,51,60,54,46,91,74,53,30.34,29.97,5,1,12,0.00
2012-10-15,71,66,56,66,61,50,96,84,73,29.97,29.71,6,0,8,0.08
2012-10-16,65,56,48,50,48,46,92,74,55,29.97,29.86,7,0,9,0.00
2012-10-17,70,56,43,55,50,42,98,82,55,30.09,29.97,1,0,6,0.00
2012-10-18,72,62,52,62,57,51,97,83,67,30.02,29.84,1,0,9,0.00
2012-10-19,75,64,54,67,62,53,100,93,73,29.85,29.64,1,0,8,0.27
2012-10-20,68,58,48,53,50,45,100,76,56,29.98,29.72,2,0,5,0.00
2012-10-21,66,54,43,48,45,42,97,74,49,30.19,29.98,5,0,7,0.00
2012-10-22,74,55,42,53,47,41,98,77,44,30.27,30.16,3,0,5,0.00
2012-10-23,81,63,48,64,56,47,97,79,50,30.20,30.08,2,0,4,0.00
2012-10-24,84,66,56,66,60,54,99,81,47,30.18,30.09,1,0,4,0.00
2012-10-25,72,64,60,64,61,59,97,90,76,30.26,30.16,1,0,3,0.00
2012-10-26,70,64,62,63,62,60,98,91,78,30.24,30.09,1,0,2,0.01
2012-10-27,70,63,58,60,57,54,97,83,59,30.09,29.89,3,0,5,0.00
2012-10-28,61,58,53,56,52,46,97,79,63,29.90,29.63,4,1,10,0.12
2012-10-29,54,51,46,53,50,45,98,97,96,29.62,28.70,9,1,20,2.77
2012-10-30,42,42,41,42,41,40,97,97,96,29.54,29.28,3,0,5,0.12
2012-10-31,54,46,41,45,42,40,98,85,65,29.72,29.53,4,0,6,0.00
2012-11-1,52,47,39,43,41,38,96,80,67,29.81,29.71,1,0,7,0.00
2012-11-2,54,48,38,40,37,35,94,67,57,29.99,29.81,4,0,10,0.00
2012-11-3,49,46,40,37,35,33,85,67,61,30.14,29.99,7,0,9,0.01
2012-11-4,53,40,34,38,34,33,94,81,54,30.16,30.06,2,0,7,0.00
2012-11-5,50,43,36,35,32,30,82,65,53,30.25,30.10,5,0,9,0.00
2012-11-6,48,40,31,35,32,29,91,73,55,30.28,30.07,3,0,5,0.00
2012-11-7,44,42,39,36,32,30,89,69,64,30.07,29.93,3,0,7,0.03
2012-11-8,55,45,39,36,29,24,90,55,30,30.11,29.94,5,0,11,0.02
2012-11-9,58,46,37,42,37,33,94,71,51,30.29,30.11,4,0,9,0.00
2012-11-10,66,49,36,50,42,35,98,80,46,30.43,30.29,1,0,5,0.00
2012-11-11,72,53,39,51,45,38,98,79,45,30.51,30.41,3,0,7,0.00
2012-11-12,72,59,45,61,54,44,99,85,66,30.47,30.19,5,0,8,0.01
2012-11-13,65,46,38,62,40,30,97,80,56,30.54,30.19,6,0,13,0.49
2012-11-14,49,40,33,34,32,29,91,73,54,30.61,30.49,6,0,7,0.00
2012-11-15,51,44,34,40,37,32,93,75,66,30.50,30.36,3,0,5,0.00
2012-11-16,55,45,39,37,35,33,86,71,49,30.50,30.36,4,0,10,0.00
2012-11-17,55,43,34,36,33,31,90,70,42,30.65,30.50,4,0,7,0.00
2012-11-18,53,46,38,44,40,35,94,80,67,30.66,30.56,3,0,6,0.00
2012-11-19,56,49,42,45,42,38,86,75,66,30.56,30.28,4,0,8,0.00
2012-11-20,56,48,40,47,43,38,95,81,68,30.28,30.14,2,0,4,0.00
2012-11-21,58,44,34,42,37,33,99,78,43,30.27,30.18,2,0,6,0.00
2012-11-22,59,42,31,39,34,29,97,75,43,30.33,30.21,2,0,5,0.00
2012-11-23,63,48,31,45,37,30,97,70,45,30.21,29.82,3,0,11,0.00
2012-11-24,50,40,34,34,26,23,62,56,49,30.12,29.87,15,1,15,0.00
2012-11-25,44,36,29,27,25,21,86,63,51,30.15,30.01,3,0,7,0.00
2012-11-26,56,44,28,36,33,25,91,69,45,30.27,30.06,3,0,5,0.00
2012-11-27,44,41,35,42,38,33,98,89,79,30.33,30.21,3,0,6,0.08
2012-11-28,49,40,31,35,30,26,89,69,44,30.44,30.30,7,0,9,0.00
2012-11-29,52,38,28,33,29,25,93,72,45,30.51,30.39,3,0,6,0.00
2012-11-30,53,39,28,38,33,27,97,81,52,30.42,30.35,0,0,3,0.00
2012-12-1,51,40,32,44,38,32,98,92,78,30.50,30.40,1,0,5,0.01
2012-12-2,46,38,35,44,37,34,99,97,93,30.45,30.35,0,0,3,0.00
2012-12-3,71,59,44,59,54,44,100,84,64,30.31,30.20,4,0,5,0.00
2012-12-4,73,61,51,59,54,50,98,81,57,30.29,30.06,4,0,8,0.00
2012-12-5,63,54,40,53,41,28,85,62,46,30.36,30.04,7,1,11,0.01
2012-12-6,47,38,33,31,27,24,80,65,50,30.45,30.31,3,0,6,0.00
2012-12-7,51,45,37,48,41,31,96,85,76,30.31,30.03,3,0,5,0.05
2012-12-8,56,51,47,53,50,46,99,96,89,30.07,29.95,1,0,5,0.00
2012-12-9,53,50,49,52,50,48,100,98,90,30.22,30.04,4,0,7,0.15
2012-12-10,63,57,49,62,56,49,100,98,90,30.03,29.64,2,0,5,0.01
2012-12-11,59,47,42,58,39,32,97,73,59,30.28,29.68,9,1,15,0.13
2012-12-12,47,42,36,34,32,31,87,70,58,30.49,30.27,4,0,7,0.00
2012-12-13,49,40,31,32,30,27,87,67,46,30.52,30.41,4,0,7,0.00
2012-12-14,55,38,27,38,31,25,95,79,51,30.41,30.27,2,0,5,0.00
2012-12-15,55,43,33,41,37,31,96,79,58,30.35,30.18,2,0,3,0.00
2012-12-16,47,46,45,44,43,41,95,88,78,30.21,30.13,1,0,2,0.03
2012-12-17,55,53,52,55,52,50,100,98,96,29.82,29.60,2,0,5,0.06
2012-12-18,62,52,39,55,45,35,100,80,54,29.87,29.59,7,1,14,0.00
2012-12-19,54,44,33,43,37,32,97,79,63,30.23,29.87,7,0,10,0.00
2012-12-20,52,44,37,52,39,35,99,83,65,30.26,29.50,3,0,9,0.61
2012-12-21,58,44,39,57,35,26,99,71,57,29.63,29.31,5,1,13,0.27
2012-12-22,45,40,34,29,27,24,67,60,50,30.11,29.63,9,2,18,0.00
2012-12-23,48,39,30,30,26,23,80,61,45,30.13,29.96,4,0,6,0.00
2012-12-24,41,39,37,38,35,32,98,89,70,30.16,29.96,2,0,5,0.16
2012-12-25,51,42,34,43,37,34,99,84,61,30.31,29.96,3,0,9,0.00
2012-12-26,42,37,33,42,35,30,100,92,76,30.32,29.44,5,1,11,1.49
2012-12-27,41,38,36,37,35,33,97,89,74,29.77,29.46,3,1,11,0.02
2012-12-30,43,38,31,27,25,23,72,60,51,30.40,30.15,14,2,19,0.00
2012-12-31,42,35,28,30,26,23,83,70,57,30.39,30.05,2,0,4,0.00
2013-1-1,45,41,36,35,33,29,80,73,65,30.08,29.96,2,0,6,0.00